This is the latest recevied weather packets stored in our database for station/object WB0OCV. If no packets are shown the sender has not sent any weather packets the latest 10 day(s).
| Time | Temp. | Humidity | Pressure | Rain* | Wind** | Luminosity | Snow |
|---|---|---|---|---|---|---|---|
| 1777996629 | 18.33° C | 75% | 1015.4 hPa | 0 mm | - | 785 W/m² | - |
| 1777996326 | 17.78° C | 70% | 1015.5 hPa | 0 mm | - | 784 W/m² | - |
| 1777996022 | 17.78° C | 69% | 1015.3 hPa | 0 mm | - | 780 W/m² | - |
| 1777995718 | 18.33° C | 71% | 1015.4 hPa | 0 mm | - | 776 W/m² | - |
| 1777995415 | 18.33° C | 68% | 1015.5 hPa | 0 mm | - | 775 W/m² | - |
| 1777995112 | 18.89° C | 67% | 1015.5 hPa | 0 mm | - | 767 W/m² | - |
| 1777994809 | 17.78° C | 69% | 1015.5 hPa | 0 mm | - | 762 W/m² | - |
| 1777994504 | 17.78° C | 70% | 1015.3 hPa | 0 mm | - | 753 W/m² | - |
| 1777994200 | 17.78° C | 72% | 1015.7 hPa | 0 mm | - | 746 W/m² | - |
| 1777993898 | 18.33° C | 69% | 1015.4 hPa | 0 mm | - | 742 W/m² | - |
| 1777993594 | 17.78° C | 70% | 1015.6 hPa | 0 mm | - | 737 W/m² | - |
| 1777993291 | 17.22° C | 72% | 1015.3 hPa | 0 mm | - | 729 W/m² | - |
| 1777992986 | 17.22° C | 71% | 1015.2 hPa | 0 mm | - | 720 W/m² | - |
| 1777992685 | 17.78° C | 71% | 1015.2 hPa | 0 mm | - | 712 W/m² | - |
| 1777992382 | 17.78° C | 69% | 1015.2 hPa | 0 mm | - | 707 W/m² | - |
| 1777992080 | 17.22° C | 72% | 1015.3 hPa | 0 mm | - | 696 W/m² | - |
| 1777991777 | 17.22° C | 72% | 1015.1 hPa | 0 mm | - | 687 W/m² | - |
| 1777991474 | 17.78° C | 71% | 1015.1 hPa | 0 mm | - | 677 W/m² | - |
| 1777991171 | 17.22° C | 72% | 1015.1 hPa | 0 mm | - | 668 W/m² | - |
| 1777990869 | 16.67° C | 72% | 1015.2 hPa | 0 mm | - | 656 W/m² | - |
| 1777990566 | 17.22° C | 72% | 1015.3 hPa | 0 mm | - | 644 W/m² | - |
| 1777989959 | 17.22° C | 71% | 1015.1 hPa | 0 mm | - | 621 W/m² | - |
| 1777989656 | 17.22° C | 72% | 1015.4 hPa | 0 mm | - | 606 W/m² | - |
| 1777989352 | 16.67° C | 74% | 1015.2 hPa | 0 mm | - | 594 W/m² | - |
| 1777989049 | 16.67° C | 75% | 1015 hPa | 0 mm | - | 579 W/m² | - |
* Rain latest hour (hover to see other rain measurements)
** Current wind speed in m/s (hover to see current wind gust speed)